Printer-friendly version

IAU Minor Planet Center

Minor Planet Center

24P/Schaumasse

Orbital Elements

The following orbital elements are taken from MPC 56804:
24P/Schaumasse
Epoch 2009 July 28.0 TT = JDT 2455040.5
T 2009 Aug.  9.6270 TT                                  MPC
q   1.213932             (2000.0)            P               Q
n   0.1189043      Peri.   57.9996      -0.7224176      -0.6618944
a   4.095791       Node    79.7183      +0.5457906      -0.7234538
e   0.703615       Incl.   11.7292      +0.4245296      -0.1962407
P   8.29
From 621 observations 1976-2001, mean residual 0".9.  Nongravitational
     parameters A1 = +0.10, A2 = -0.0587.
Elements are also available for the current standard epoch:
24P/Schaumasse
Epoch 2010 Jan. 4.0 TT = JDT 2455200.5
T 2009 Aug.  9.6197 TT                                  MPC
q   1.213888             (2000.0)            P               Q
n   0.1189314      Peri.   57.9951      -0.7223393      -0.6619795
a   4.095167       Node    79.7161      +0.5458720      -0.7233881
e   0.703580       Incl.   11.7293      +0.4245583      -0.1961957
P   8.29
An explanation of the orbital elements is available.

These orbital elements are also available in forms suitable for loading into a number of popular planetarium-type software programs.


Ephemeris

The following ephemeris is at intervals of five days. A daily ephemeris covering the same time interval is also available.

Personalized ephemerides for this (and other) objects may be generated using the Minor Planet & Comet Ephemeris Service.

Recent magnitude estimates for this comet (as reported to the ICQ) may be available.

Date    TT    R. A. (2000) Decl.     Delta      r     Elong.  Phase   m1    m2

WARNING!

This comet gets close to the sun during the period covered in the ephemeris below. Observers are warned to be wary of observing comets near the sun. NEVER point any kind of optical instrument at the sun--instant blindness will be the probable result.

2009 10 26 13 42.86 -04 00.3 2.531 1.559 9.5 6.1 15.3 19.0 2009 10 31 13 56.17 -05 23.6 2.562 1.597 10.6 6.5 15.7 19.1 2009 11 05 14 09.16 -06 42.7 2.594 1.635 11.7 7.1 16.0 19.2 2009 11 10 14 21.85 -07 57.5 2.624 1.675 13.1 7.7 16.4 19.3 2009 11 15 14 34.25 -09 08.0 2.654 1.715 14.6 8.4 16.8 19.4 2009 11 20 14 46.35 -10 14.1 2.682 1.755 16.3 9.1 17.2 19.5 2009 11 25 14 58.17 -11 16.0 2.708 1.796 18.1 9.8 17.6 19.6 2009 11 30 15 09.71 -12 13.6 2.732 1.837 20.1 10.6 17.9 19.7 2009 12 05 15 20.96 -13 07.2 2.755 1.879 22.1 11.4 18.3 19.8 2009 12 10 15 31.94 -13 56.7 2.775 1.921 24.3 12.2 18.6 19.9 2009 12 15 15 42.64 -14 42.4 2.792 1.963 26.6 13.0 19.0 20.0 2009 12 20 15 53.05 -15 24.4 2.807 2.005 29.0 13.8 19.3 20.0 2009 12 25 16 03.17 -16 02.8 2.819 2.047 31.5 14.6 19.6 20.1 2009 12 30 16 12.99 -16 37.8 2.828 2.089 34.2 15.3 20.0 20.2 2010 01 04 16 22.51 -17 09.6 2.834 2.131 36.9 16.1 20.3 20.3 2010 01 09 16 31.71 -17 38.3 2.837 2.173 39.7 16.8 20.3 2010 01 14 16 40.58 -18 04.2 2.836 2.215 42.6 17.5 20.4 2010 01 19 16 49.12 -18 27.5 2.833 2.257 45.6 18.2 20.5 2010 01 24 16 57.30 -18 48.4 2.826 2.298 48.7 18.8 20.5 2010 01 29 17 05.11 -19 07.0 2.816 2.340 51.9 19.3 20.6 2010 02 03 17 12.54 -19 23.6 2.802 2.381 55.2 19.9 20.6 2010 02 08 17 19.57 -19 38.4 2.786 2.423 58.6 20.3 20.7 2010 02 13 17 26.18 -19 51.6 2.767 2.464 62.0 20.7 20.7 2010 02 18 17 32.36 -20 03.4 2.745 2.504 65.6 21.1 20.7 2010 02 23 17 38.07 -20 14.1 2.721 2.545 69.3 21.3 20.7 2010 02 28 17 43.30 -20 23.9 2.694 2.586 73.1 21.5 20.8 2010 03 05 17 48.03 -20 32.9 2.665 2.626 77.0 21.6 20.8 2010 03 10 17 52.23 -20 41.5 2.634 2.666 81.0 21.6 20.8 2010 03 15 17 55.88 -20 49.6 2.602 2.706 85.1 21.5 20.8 2010 03 20 17 58.95 -20 57.7 2.569 2.745 89.4 21.3 20.8 2010 03 25 18 01.41 -21 05.7 2.535 2.784 93.8 20.9 20.8 2010 03 30 18 03.26 -21 13.9 2.501 2.823 98.3 20.5 20.8 2010 04 04 18 04.46 -21 22.4 2.467 2.862 102.9 19.9 20.7 2010 04 09 18 05.00 -21 31.3 2.435 2.901 107.7 19.2 20.7 2010 04 14 18 04.86 -21 40.6 2.403 2.939 112.7 18.4 20.7 2010 04 19 18 04.04 -21 50.3 2.374 2.977 117.7 17.4 20.7 2010 04 24 18 02.54 -22 00.4 2.347 3.015 123.0 16.2 20.6 2010 04 29 18 00.38 -22 10.8 2.324 3.052 128.3 15.0 20.6 2010 05 04 17 57.58 -22 21.5 2.305 3.090 133.8 13.6 20.5 2010 05 09 17 54.18 -22 32.1 2.290 3.127 139.5 12.1 20.5 2010 05 14 17 50.24 -22 42.6 2.281 3.163 145.2 10.5 20.5 2010 05 19 17 45.83 -22 52.8 2.277 3.200 151.0 8.8 20.4 2010 05 24 17 41.04 -23 02.4 2.280 3.236 157.0 7.0 20.4 2010 05 29 17 35.97 -23 11.4 2.290 3.272 162.9 5.2 20.3 2010 06 03 17 30.73 -23 19.5 2.307 3.308 168.9 3.4 20.2 2010 06 08 17 25.42 -23 26.7 2.331 3.343 174.9 1.5 20.2 2010 06 13 17 20.16 -23 32.9 2.363 3.379 179.0 0.3 20.1 2010 06 18 17 15.07 -23 38.3 2.403 3.414 173.2 2.0 20.3 2010 06 23 17 10.23 -23 42.9 2.450 3.448 167.3 3.7 20.5 2010 06 28 17 05.75 -23 46.8 2.504 3.483 161.5 5.3 20.6 2010 07 03 17 01.67 -23 50.3 2.565 3.517 155.8 6.8 20.8 2010 07 08 16 58.06 -23 53.5 2.632 3.551 150.2 8.2 20.9 2010 07 13 16 54.95 -23 56.5 2.706 3.585 144.8 9.4 21.1 2010 07 18 16 52.37 -23 59.6 2.785 3.618 139.4 10.5 21.2 2010 07 23 16 50.34 -24 02.8 2.870 3.651 134.2 11.5 21.3 2010 07 28 16 48.86 -24 06.4 2.959 3.684 129.1 12.4 21.4 2010 08 02 16 47.90 -24 10.2 3.052 3.717 124.1 13.1 21.5 2010 08 07 16 47.46 -24 14.5 3.149 3.750 119.2 13.7 21.6 2010 08 12 16 47.52 -24 19.2 3.248 3.782 114.5 14.1 21.7 2010 08 17 16 48.06 -24 24.4 3.350 3.814 109.8 14.5 21.8 2010 08 22 16 49.05 -24 29.9 3.455 3.846 105.2 14.7 21.9 2010 08 27 16 50.47 -24 35.9 3.560 3.878 100.7 14.8 22.0 2010 09 01 16 52.28 -24 42.1 3.667 3.909 96.3 14.9 22.1 2010 09 06 16 54.46 -24 48.6 3.774 3.940 92.0 14.8 22.2 2010 09 11 16 56.99 -24 55.4 3.882 3.971 87.7 14.7 22.3 2010 09 16 16 59.84 -25 02.2 3.989 4.002 83.5 14.5 22.3 2010 09 21 17 02.99 -25 09.2 4.095 4.032 79.4 14.2 22.4 2010 09 26 17 06.40 -25 16.1 4.200 4.062 75.2 13.8 22.5 2010 10 01 17 10.07 -25 23.0 4.304 4.092 71.2 13.4 22.5 2010 10 06 17 13.97 -25 29.7 4.406 4.122 67.2 12.9 22.6 2010 10 11 17 18.08 -25 36.2 4.506 4.152 63.2 12.4 22.6 2010 10 16 17 22.38 -25 42.5 4.603 4.181 59.2 11.8 22.6 2010 10 21 17 26.85 -25 48.4 4.698 4.210 55.2 11.2 22.7 2010 10 26 17 31.47 -25 54.0 4.789 4.239 51.3 10.5 22.7 2010 10 31 17 36.23 -25 59.2 4.877 4.268 47.4 9.9 22.7 2010 11 05 17 41.11 -26 03.9 4.961 4.296 43.5 9.1 22.8 2010 11 10 17 46.10 -26 08.1 5.041 4.325 39.6 8.4 22.8 2010 11 15 17 51.17 -26 11.9 5.117 4.353 35.8 7.6 22.8 2010 11 20 17 56.33 -26 15.1 5.189 4.381 31.9 6.8 22.8 2010 11 25 18 01.53 -26 17.7 5.255 4.408 28.0 6.0 22.8 2010 11 30 18 06.79 -26 19.8 5.317 4.436 24.2 5.2 22.8

Valid HTML 4.01!